TimeAST,TemperatureF,Dew PointF,Humidity,Sea Level PressureIn,VisibilityMPH,Wind Direction,Wind SpeedMPH,Gust SpeedMPH,PrecipitationIn,Events,Conditions,WindDirDegrees,DateUTC
12:53 AM,77.0,69.1,76,30.02,10.0,East,9.2,-,N/A,,Clear,90,2012-12-10 04:53:00
1:53 AM,77.0,68.0,74,30.01,10.0,East,11.5,20.7,N/A,,Clear,90,2012-12-10 05:53:00
2:53 AM,77.0,68.0,74,29.99,10.0,East,10.4,17.3,N/A,,Clear,90,2012-12-10 06:53:00
3:53 AM,75.9,66.9,74,29.98,10.0,East,8.1,-,N/A,,Partly Cloudy,90,2012-12-10 07:53:00
4:53 AM,75.9,66.9,74,29.98,10.0,East,6.9,-,N/A,,Scattered Clouds,90,2012-12-10 08:53:00
5:53 AM,77.0,66.0,69,29.99,10.0,East,9.2,-,N/A,,Scattered Clouds,90,2012-12-10 09:53:00
6:53 AM,78.1,66.0,66,30.01,10.0,East,9.2,20.7,N/A,,Clear,90,2012-12-10 10:53:00
7:53 AM,79.0,66.0,64,30.02,10.0,East,9.2,-,N/A,,Partly Cloudy,100,2012-12-10 11:53:00
8:53 AM,81.0,69.1,67,30.04,10.0,ENE,13.8,24.2,N/A,,Scattered Clouds,70,2012-12-10 12:53:00
9:53 AM,82.9,69.1,63,30.04,10.0,East,16.1,23.0,N/A,,Partly Cloudy,90,2012-12-10 13:53:00
10:53 AM,82.9,70.0,65,30.04,10.0,East,17.3,23.0,N/A,,Mostly Cloudy,80,2012-12-10 14:53:00
11:53 AM,82.0,70.0,67,30.01,10.0,ENE,13.8,23.0,N/A,,Partly Cloudy,60,2012-12-10 15:53:00
12:53 PM,84.0,70.0,63,29.98,10.0,East,21.9,27.6,N/A,,Partly Cloudy,80,2012-12-10 16:53:00
1:53 PM,82.0,70.0,67,29.95,10.0,ENE,16.1,24.2,N/A,,Scattered Clouds,70,2012-12-10 17:53:00
2:53 PM,82.0,68.0,62,29.94,10.0,East,19.6,26.5,N/A,,Mostly Cloudy,80,2012-12-10 18:53:00
3:53 PM,82.0,68.0,62,29.94,10.0,East,13.8,23.0,N/A,,Clear,80,2012-12-10 19:53:00
4:53 PM,81.0,66.0,60,29.95,10.0,East,12.7,20.7,N/A,,Mostly Cloudy,80,2012-12-10 20:53:00
5:53 PM,79.0,69.1,72,29.96,10.0,ENE,9.2,18.4,N/A,,Partly Cloudy,70,2012-12-10 21:53:00
6:53 PM,79.0,69.1,72,29.98,10.0,East,9.2,-,N/A,,Clear,90,2012-12-10 22:53:00
7:53 PM,79.0,69.1,72,29.99,10.0,East,9.2,-,N/A,,Partly Cloudy,80,2012-12-10 23:53:00
8:53 PM,79.0,70.0,74,30.00,10.0,East,9.2,18.4,N/A,,Partly Cloudy,80,2012-12-11 00:53:00
9:53 PM,79.0,69.1,72,30.02,10.0,East,11.5,-,N/A,,Mostly Cloudy,90,2012-12-11 01:53:00
10:53 PM,78.1,69.1,74,30.01,10.0,East,11.5,18.4,N/A,,Partly Cloudy,90,2012-12-11 02:53:00
11:53 PM,78.1,69.1,74,30.01,10.0,East,8.1,17.3,N/A,,Clear,90,2012-12-11 03:53:00